Wetbulb
54.56 53.98 54.08 54.12 53.46 51.51 49.54 40.37 34.16 47.97 46.30 36.13 34.20 27.69 35.67 41.27 38.64 39.55 38.33 36.87 35.44 33.23 33.59 31.73 31.18 30.87 34.47 40.16 38.52 35.15 35.64 31.21 24.81 29.53 34.96 35.74 34.11 33.33 32.47 29.04 27.56 30.10 29.60 27.79
54.38 53.71 53.91 53.61 53.30 51.33 42.08 39.12 41.17 47.18 45.92 29.66 30.14 36.47 37.81 39.05 37.90 37.69 37.48 36.26 37.65 37.05 33.73 30.93 32.77 33.64 38.87 40.12 38.08 36.77 36.74 30.66 23.33 25.10 30.01 33.56 31.20 33.54 34.35 33.99 33.22 29.34 24.81 26.84
54.28 53.48 53.59 53.10 53.20 52.08 43.37 38.20 36.16 40.66 42.05 39.30 35.99 34.12 34.28 35.33 39.57 38.58 39.11 37.58 38.17 35.53 33.20 35.24 33.04 33.15 38.36 39.55 39.07 43.63 39.43 32.80 29.04 23.77 26.53 30.24 28.69 31.01 32.51 31.78 28.62 29.51 29.13 28.05
54.39 53.50 53.28 52.82 52.82 52.57 43.94 37.20 34.79 38.15 33.09 35.33 35.31 35.06 34.33 33.84 34.41 37.97 38.59 35.33 36.25 34.70 31.19 31.66 31.20 33.83 34.77 37.32 41.50 37.42 36.36 29.69 29.67 30.74 30.72 30.67 30.23 30.06 30.50 28.43 32.71 29.03 30.63 30.23
54.53 53.59 52.89 52.48 52.33 52.18 43.26 35.55 35.05 36.09 35.27 36.37 35.16 36.21 34.04 34.20 35.08 36.07 34.62 34.38 35.71 34.81 32.43 33.70 31.71 32.71 32.02 32.45 34.90 34.17 35.35 28.88 29.24 26.99 30.45 28.20 27.72 29.83 30.07 29.93 33.26 33.13 32.82 31.83
54.45 53.47 52.64 52.16 52.04 49.91 41.06 38.75 38.95 36.32 34.71 32.76 33.44 33.40 35.51 34.96 36.32 36.43 37.24 36.79 34.39 32.48 34.31 35.72 35.93 35.79 35.08 33.82 32.41 32.52 31.28 29.11 27.02 24.50 27.61 26.82 23.98 27.63 29.68 31.16 33.40 34.20 30.35 34.27
54.24 53.36 52.65 52.04 52.07 50.49 41.35 40.37 37.96 33.32 31.05 32.35 33.43 35.36 36.16 35.43 35.62 33.25 35.35 36.01 33.58 34.71 36.76 36.81 34.08 32.41 32.78 33.51 33.80 34.22 30.72 28.91 26.76 23.45 24.09 15.91 28.61 30.52 32.20 32.55 33.49 36.11 34.15 35.13
54.07 53.39 52.76 52.20 52.14 51.71 45.21 41.22 37.68 35.03 30.90 33.72 34.46 35.01 34.94 33.73 34.95 33.44 34.92 35.58 36.06 36.83 34.35 30.91 27.06 25.99 27.70 29.63 32.16 32.18 32.34 29.44 24.56 21.64 20.20 26.03 27.26 28.70 28.87 29.46 31.33 32.12 33.96 35.49
53.77 53.14 52.67 52.37 52.13 51.99 47.01 42.32 40.69 37.28 33.27 32.26 35.66 34.19 34.60 31.96 30.78 31.82 34.11 35.56 36.33 35.08 32.85 28.60 22.07 22.04 23.61 23.10 25.13 30.32 31.22 30.76 25.82 22.80 20.92 19.51 27.36 30.01 31.11 30.98 26.61 32.42 33.51 34.52
53.46 53.00 52.59 52.31 52.00 51.85 47.01 43.15 42.58 37.88 33.45 36.01 35.51 33.13 33.97 35.30 32.21 31.36 31.69 32.20 31.89 33.83 28.32 26.66 23.48 23.53 26.60 22.12 21.89 23.33 24.66 24.53 23.46 23.07 22.48 25.77 31.28 30.89 32.23 23.57 27.79 32.27 33.85 34.84
50.45 53.01 52.50 52.29 51.87 51.65 47.61 43.95 42.40 39.53 35.04 36.80 36.63 37.38 35.23 34.93 33.52 30.92 32.37 30.99 31.25 29.59 27.13 26.43 25.60 23.98 26.10 24.39 25.54 25.20 24.85 22.66 22.26 22.82 21.09 19.24 31.02 30.69 26.85 31.27 31.85 34.07 35.00 33.25
49.22 51.91 52.61 52.22 51.77 51.33 48.56 42.03 42.72 42.20 37.68 36.76 39.19 38.45 38.65 37.89 37.06 35.62 33.16 32.05 31.72 32.20 27.61 27.03 26.47 25.61 25.46 25.01 23.21 27.58 23.82 28.48 26.47 26.98 27.21 33.12 31.04 31.44 31.90 33.74 33.86 33.46 34.80 33.18
48.37 50.11 52.42 52.13 51.89 51.61 48.95 41.19 40.44 40.50 36.38 36.88 36.90 36.64 38.00 39.71 38.71 39.22 34.42 33.69 34.46 33.36 33.49 30.07 28.78 26.94 28.38 25.07 25.44 26.32 29.27 29.07 26.97 27.58 27.78 29.61 30.89 30.86 31.72 34.01 33.11 34.42 35.62 35.21
47.14 48.50 49.70 52.01 51.79 51.43 47.66 42.12 40.45 39.95 37.72 32.23 33.84 38.64 36.11 38.34 38.72 38.47 38.30 36.77 35.90 34.59 32.69 29.78 28.42 27.72 31.34 27.65 28.70 28.27 31.41 30.61 28.66 26.97 30.12 29.51 31.40 31.72 33.04 33.69 34.20 34.73 34.35 34.73
45.95 46.84 48.42 51.99 51.69 51.29 48.26 45.41 42.12 42.47 38.59 32.77 34.40 36.22 36.49 37.79 37.81 37.40 37.38 36.72 34.69 32.92 30.64 28.74 28.42 29.80 29.63 28.42 27.67 26.32 30.75 31.05 29.58 29.59 32.53 31.36 31.75 31.62 32.67 33.18 32.92 34.34 34.32 33.95
45.04 45.80 47.13 49.65 51.65 50.69 46.12 41.26 45.17 43.31 42.60 35.81 30.18 35.62 34.96 36.25 36.73 36.54 35.50 35.73 34.69 33.85 33.03 30.36 31.26 31.91 29.96 26.53 26.15 32.78 32.60 32.66 34.40 33.42 32.82 33.52 31.66 32.17 32.53 32.89 33.08 33.16 33.95 33.93
44.56 45.47 46.62 48.23 51.22 47.98 43.43 40.48 42.72 46.67 44.03 37.48 31.88 31.38 34.58 36.14 35.77 35.19 34.57 34.72 33.84 33.46 32.58 30.75 30.41 30.14 31.10 27.84 25.98 33.74 33.79 35.08 34.73 34.38 34.30 31.63 32.84 32.47 33.26 33.72 33.76 36.16 33.38 33.60
44.51 45.56 46.53 48.28 50.18 47.23 43.11 43.89 47.18 46.21 41.15 38.55 32.05 31.43 30.57 35.81 32.47 31.31 34.23 31.52 31.42 32.31 31.55 31.15 30.24 30.55 28.63 27.36 32.36 32.51 34.33 34.78 33.31 33.89 33.15 33.29 32.88 32.84 32.53 32.20 32.24 31.83 31.72 31.46
44.93 45.62 48.10 48.24 45.23 41.26 41.00 46.80 46.30 44.97 41.15 32.92 32.52 28.49 25.79 34.48 32.61 32.14 31.68 30.87 26.81 29.70 28.94 28.60 30.13 28.42 26.61 31.91 31.75 31.82 33.59 33.46 33.25 31.79 32.39 31.92 31.99 31.40 31.10 31.21 31.16 31.11 30.82 31.15
44.88 43.22 39.84 33.84 41.64 46.60 46.44 42.50 38.90 37.96 38.58 36.16 32.84 31.92 29.05 32.33 30.67 29.68 28.32 27.95 27.22 21.33 28.44 29.01 27.80 28.12 33.98 33.57 32.30 32.64 33.27 34.45 32.08 29.23 29.40 30.33 30.54 31.76 31.35 31.29 31.86 32.38 31.95 31.87
38.34 33.76 33.44 41.44 46.51 41.48 36.95 31.30 31.80 32.06 31.02 34.59 33.93 30.37 29.81 34.02 28.70 28.53 29.76 24.08 26.00 19.24 24.04 25.70 24.31 27.00 31.71 29.83 29.31 31.09 31.58 32.26 33.10 33.93 34.30 33.88 33.18 32.74 32.32 32.21 32.73 32.57 31.79 31.00
37.65 36.37 40.52 39.68 36.25 31.65 30.91 29.90 31.28 31.07 28.21 33.35 32.18 31.16 31.41 31.87 33.72 30.46 28.35 25.38 24.35 17.87 26.51 23.96 21.28 27.70 29.27 28.93 28.65 29.48 31.33 31.58 33.24 34.21 34.40 33.10 33.47 33.21 32.29 31.75 31.10 30.63 30.60 29.73
38.68 33.56 31.70 31.76 30.53 27.98 25.67 24.61 28.49 28.87 32.01 31.26 31.20 29.21 30.92 31.43 33.04 29.98 28.69 26.61 25.05 26.30 24.11 20.39 23.68 29.89 29.81 29.57 29.10 30.23 31.39 31.51 32.54 32.24 32.88 33.18 32.32 32.06 31.60 31.03 30.77 30.08 29.21 28.48
32.70 29.97 25.54 25.39 25.15 27.35 27.41 24.67 31.01 31.26 32.55 32.12 32.33 30.88 31.88 32.00 31.54 30.89 28.14 29.08 26.85 21.47 20.05 18.95 25.27 28.37 29.01 30.07 30.00 30.53 31.59 31.02 30.07 29.14 30.32 30.79 29.81 30.38 30.42 31.01 29.97 29.21 27.79 27.11
29.53 29.30 24.33 25.57 28.36 28.72 26.34 30.40 31.01 31.34 34.42 32.30 31.54 30.71 31.19 30.38 29.05 29.23 26.76 23.74 19.46 20.45 19.87 23.77 26.46 28.17 28.27 28.82 29.77 30.68 30.95 30.79 30.36 30.04 28.99 27.18 26.82 27.43 29.22 29.35 28.95 28.67 27.45 26.86
28.81 27.81 26.13 29.37 25.04 28.54 29.85 30.39 30.06 32.53 33.64 33.74 32.42 29.89 28.36 26.94 27.20 25.40 20.45 19.09 15.54 21.53 24.14 26.38 28.63 28.26 28.62 29.03 29.88 30.19 30.72 31.69 31.66 30.58 30.16 29.30 28.71 28.82 28.72 27.64 27.77 27.58 27.17 26.58
21.40 25.21 30.01 28.97 28.05 27.30 28.14 29.96 30.24 33.89 33.35 30.16 29.66 25.14 24.78 27.60 22.66 21.18 25.50 22.06 24.06 24.63 25.22 26.33 28.37 28.90 29.06 29.47 29.85 29.70 29.69 30.39 29.95 29.44 29.57 28.95 28.35 25.38 23.81 25.40 26.67 26.49 26.80 26.84
MSLP
1015.70 1016.46 1017.43 1018.16 1018.85 1019.85 1020.71 1020.64 1020.87 1020.79 1021.04 1021.96 1021.52 1020.76 1018.96 1017.42 1017.12 1017.11 1016.95 1017.16 1017.39 1017.35 1017.21 1016.66 1016.18 1015.38 1014.72 1014.33 1014.39 1014.56 1014.51 1014.56 1014.21 1012.90 1011.81 1011.52 1011.46 1011.34 1011.41 1011.46 1011.52 1010.87 1009.82 1007.99
1014.49 1015.31 1016.39 1017.25 1018.10 1019.10 1020.17 1020.24 1020.58 1020.79 1021.04 1021.32 1020.86 1019.65 1018.22 1017.15 1016.81 1016.86 1016.73 1016.79 1016.78 1016.77 1016.92 1016.75 1015.90 1015.02 1014.13 1014.25 1014.37 1014.27 1014.50 1014.64 1014.59 1013.38 1012.55 1011.85 1011.76 1011.51 1011.14 1011.54 1011.52 1010.78 1010.24 1007.90
1013.24 1014.20 1015.33 1016.39 1017.18 1018.19 1019.34 1019.71 1020.43 1020.77 1020.93 1020.49 1020.13 1019.27 1017.95 1016.92 1016.02 1016.23 1016.14 1016.13 1016.30 1016.58 1016.60 1016.42 1015.74 1015.07 1014.36 1014.23 1014.28 1014.31 1014.57 1014.79 1014.96 1014.76 1013.91 1013.14 1012.57 1011.87 1011.57 1011.44 1011.46 1010.89 1009.54 1008.30
1012.30 1013.24 1014.34 1015.47 1016.38 1017.29 1018.66 1018.88 1018.59 1018.21 1019.66 1019.60 1019.26 1018.65 1017.54 1016.53 1015.95 1016.12 1015.86 1015.86 1015.98 1016.28 1016.52 1016.24 1015.82 1015.27 1014.83 1014.30 1014.25 1014.40 1014.68 1014.98 1014.82 1014.38 1013.85 1013.21 1012.52 1011.95 1011.54 1011.35 1010.65 1010.43 1008.37 1008.05
1011.60 1012.52 1013.39 1014.58 1015.74 1016.74 1017.83 1017.90 1017.86 1017.68 1017.84 1017.61 1018.35 1018.18 1017.12 1016.15 1015.55 1015.60 1015.52 1015.52 1015.55 1015.90 1016.25 1016.03 1015.77 1015.56 1015.36 1015.09 1014.83 1014.78 1014.79 1014.96 1014.86 1014.32 1013.43 1013.04 1012.40 1011.28 1011.05 1010.72 1009.92 1009.38 1008.20 1007.48
1010.55 1011.66 1012.70 1013.86 1014.80 1015.59 1016.47 1016.80 1016.46 1016.21 1016.65 1017.09 1017.41 1016.78 1016.00 1015.44 1015.05 1014.73 1014.61 1014.74 1015.48 1015.60 1015.42 1015.36 1015.27 1015.40 1015.43 1015.44 1015.51 1015.47 1015.46 1015.44 1015.50 1014.80 1013.74 1012.89 1011.89 1010.40 1010.07 1009.54 1008.83 1008.48 1008.11 1007.54
1009.75 1010.69 1011.85 1012.85 1013.75 1014.40 1015.30 1015.49 1015.94 1016.34 1016.42 1016.18 1015.66 1015.21 1015.26 1015.19 1014.89 1014.66 1014.75 1014.76 1015.29 1015.31 1015.14 1015.21 1015.25 1015.38 1015.27 1015.38 1015.39 1015.57 1015.72 1015.93 1015.99 1015.45 1014.23 1012.80 1010.57 1009.65 1009.33 1008.97 1008.45 1007.92 1007.80 1007.71
1008.21 1009.66 1010.78 1012.07 1012.92 1013.68 1014.61 1015.19 1015.56 1015.82 1015.90 1015.36 1014.90 1014.67 1014.71 1014.86 1014.90 1014.86 1014.99 1014.92 1015.15 1015.26 1015.40 1015.74 1015.55 1015.35 1015.29 1015.01 1015.06 1015.39 1015.84 1016.12 1016.27 1015.92 1014.89 1012.50 1010.20 1009.71 1009.38 1009.08 1008.61 1008.29 1008.01 1007.95
1007.43 1008.49 1009.60 1011.11 1012.08 1012.99 1014.15 1014.89 1015.24 1015.35 1015.55 1014.73 1013.98 1014.01 1014.23 1014.84 1015.19 1015.25 1015.28 1015.36 1015.25 1015.43 1015.94 1016.35 1016.37 1015.80 1015.21 1015.09 1015.20 1015.38 1015.83 1016.11 1016.60 1016.05 1015.13 1012.80 1010.57 1009.70 1009.24 1009.09 1009.12 1008.63 1008.43 1008.37
1006.69 1007.54 1008.81 1010.14 1011.35 1012.59 1013.53 1014.44 1014.68 1015.29 1015.35 1014.17 1013.75 1013.75 1013.85 1014.26 1014.92 1015.29 1015.59 1015.63 1015.74 1015.89 1016.58 1016.86 1016.61 1015.93 1015.19 1015.17 1015.21 1015.51 1016.08 1016.39 1016.47 1016.08 1015.05 1012.54 1010.22 1009.80 1009.47 1009.73 1009.94 1009.17 1009.29 1009.22
1007.77 1007.50 1008.37 1009.55 1010.86 1012.10 1012.98 1013.98 1014.30 1014.76 1015.12 1014.35 1013.73 1013.55 1013.65 1014.18 1014.60 1015.17 1015.71 1016.07 1016.17 1016.66 1016.87 1017.06 1016.50 1016.22 1015.29 1015.11 1014.69 1014.77 1015.26 1015.81 1015.87 1015.43 1014.47 1012.35 1010.09 1009.73 1009.80 1009.77 1009.55 1009.52 1009.66 1009.76
1009.32 1008.07 1008.48 1009.28 1010.29 1011.51 1012.49 1013.69 1014.05 1014.42 1015.14 1014.84 1014.21 1013.89 1013.70 1013.83 1013.93 1014.52 1015.36 1015.58 1015.38 1015.76 1016.50 1016.78 1016.61 1016.18 1015.66 1015.27 1014.84 1014.32 1014.36 1014.07 1014.12 1013.94 1012.28 1010.60 1010.06 1009.86 1009.58 1009.63 1009.73 1009.90 1010.08 1010.41
1009.34 1008.59 1008.12 1009.02 1009.87 1010.95 1011.90 1013.08 1013.90 1014.57 1015.12 1014.78 1014.60 1014.14 1013.94 1014.00 1014.13 1014.27 1014.76 1015.53 1015.11 1015.50 1015.60 1016.26 1016.50 1016.33 1015.66 1015.33 1014.66 1013.98 1013.29 1013.11 1013.21 1012.91 1010.85 1010.42 1009.76 1009.77 1009.82 1009.85 1009.99 1010.17 1010.52 1011.03
1009.79 1008.98 1008.43 1008.63 1009.54 1010.47 1011.56 1012.51 1013.20 1013.77 1014.41 1014.76 1014.35 1014.10 1014.11 1014.30 1014.34 1014.45 1014.48 1014.87 1015.17 1015.48 1015.90 1016.39 1016.57 1016.38 1015.38 1015.11 1014.59 1014.07 1012.83 1012.87 1012.43 1011.85 1010.65 1010.24 1009.84 1009.61 1009.75 1010.11 1010.40 1010.79 1011.22 1011.66
1010.07 1009.36 1008.61 1008.01 1009.00 1010.10 1011.32 1012.11 1012.59 1012.74 1013.44 1013.94 1014.26 1014.11 1014.43 1014.56 1014.63 1014.56 1014.66 1015.01 1015.42 1015.88 1016.56 1016.77 1016.74 1016.01 1015.71 1015.23 1014.85 1013.23 1011.93 1011.36 1011.45 1010.82 1010.00 1010.13 1009.92 1009.62 1009.86 1010.52 1010.88 1011.20 1011.68 1012.29
1009.43 1009.07 1008.46 1008.12 1008.42 1009.69 1011.05 1012.09 1012.25 1012.46 1012.63 1013.64 1014.31 1014.65 1014.73 1014.84 1014.72 1014.73 1015.08 1015.32 1015.67 1015.92 1016.32 1016.54 1016.10 1015.70 1015.64 1015.44 1014.40 1011.10 1010.63 1010.29 1010.04 1009.92 1009.82 1010.02 1010.08 1010.11 1010.26 1010.69 1011.10 1011.48 1011.93 1012.40
1009.36 1008.95 1008.33 1008.03 1007.96 1009.10 1010.24 1010.70 1010.64 1011.23 1012.43 1013.43 1014.26 1014.69 1015.03 1014.88 1014.87 1015.28 1015.61 1015.73 1015.87 1016.06 1016.39 1016.52 1016.19 1015.90 1015.63 1015.25 1013.71 1010.59 1010.15 1009.97 1009.83 1009.80 1010.13 1010.36 1010.40 1010.46 1010.66 1010.94 1011.34 1011.75 1012.29 1012.82
1008.83 1007.95 1007.63 1007.51 1007.55 1009.36 1010.25 1010.74 1010.58 1010.98 1012.34 1013.09 1014.00 1014.73 1015.21 1014.83 1015.12 1015.65 1015.94 1016.19 1016.31 1016.38 1016.45 1016.49 1016.26 1016.07 1015.85 1014.74 1011.31 1010.91 1010.54 1010.21 1009.95 1009.73 1009.87 1010.14 1010.29 1010.79 1011.15 1011.44 1011.86 1012.34 1012.90 1013.42
1008.53 1007.60 1006.44 1006.61 1007.27 1008.97 1010.06 1010.62 1011.13 1011.53 1012.19 1012.65 1013.71 1014.32 1014.78 1014.99 1015.19 1015.63 1016.18 1016.26 1016.84 1016.85 1016.64 1016.51 1016.28 1015.71 1014.75 1011.92 1011.59 1011.32 1010.93 1010.64 1010.27 1010.27 1010.29 1010.58 1010.81 1011.29 1011.62 1011.95 1012.40 1012.79 1013.33 1013.75
1008.21 1007.90 1007.19 1008.18 1008.29 1009.13 1009.69 1011.21 1011.78 1012.04 1012.25 1012.81 1013.20 1013.73 1014.49 1014.76 1015.17 1015.80 1016.28 1016.52 1016.65 1016.88 1016.37 1016.29 1016.01 1014.43 1012.34 1011.96 1011.79 1011.49 1011.14 1010.72 1010.68 1010.71 1010.74 1010.81 1011.02 1011.38 1011.75 1012.00 1012.38 1012.74 1013.22 1013.85
1008.83 1008.38 1008.18 1008.38 1008.52 1009.11 1010.53 1011.50 1011.94 1012.25 1012.48 1012.45 1012.77 1013.31 1013.93 1014.35 1014.66 1015.10 1015.69 1016.27 1016.57 1016.87 1016.35 1016.30 1015.61 1014.03 1012.42 1012.16 1011.91 1011.48 1011.12 1010.62 1010.30 1009.94 1009.75 1009.89 1010.29 1010.94 1011.57 1012.11 1012.50 1012.89 1013.39 1013.95
1009.30 1008.93 1008.64 1008.78 1008.97 1009.83 1010.52 1011.20 1011.55 1011.57 1011.47 1011.78 1012.41 1013.03 1013.37 1014.15 1014.17 1014.64 1015.57 1015.96 1016.48 1016.60 1016.33 1016.34 1015.18 1013.14 1012.66 1012.37 1011.99 1011.54 1011.04 1010.60 1010.14 1010.03 1009.91 1009.94 1010.25 1010.62 1011.32 1012.01 1012.61 1013.06 1013.52 1014.10
1009.18 1009.16 1008.90 1008.89 1009.52 1009.78 1010.14 1010.55 1010.68 1010.73 1010.90 1011.57 1012.14 1012.87 1013.27 1014.11 1014.17 1014.69 1015.19 1015.60 1016.08 1016.06 1016.45 1015.62 1013.96 1013.24 1012.90 1012.54 1012.14 1011.71 1011.25 1010.70 1010.30 1010.32 1010.29 1010.36 1010.64 1010.94 1011.37 1012.03 1012.55 1013.13 1013.75 1014.33
1009.64 1009.81 1009.95 1009.81 1009.92 1009.89 1009.78 1009.84 1009.71 1010.06 1010.31 1011.03 1011.75 1012.68 1013.01 1013.60 1014.03 1014.39 1014.89 1015.35 1015.69 1016.36 1016.30 1014.96 1014.08 1013.63 1013.17 1012.72 1012.34 1012.06 1011.67 1011.22 1010.98 1011.13 1011.05 1011.13 1011.33 1011.54 1011.78 1012.20 1012.76 1013.33 1014.04 1014.60
1010.61 1010.62 1010.47 1010.13 1009.79 1010.13 1009.93 1009.84 1009.99 1010.33 1010.43 1011.16 1011.94 1012.70 1013.02 1013.40 1013.89 1014.17 1014.93 1015.58 1015.70 1015.56 1014.96 1014.70 1014.24 1013.84 1013.42 1012.82 1012.57 1012.22 1011.95 1011.79 1011.66 1011.64 1011.78 1011.98 1012.06 1012.22 1012.48 1012.77 1013.11 1013.60 1014.28 1014.92
1011.27 1011.10 1010.75 1010.34 1010.16 1009.93 1010.11 1010.54 1010.79 1010.84 1011.04 1011.51 1011.89 1012.52 1013.04 1013.35 1013.61 1014.24 1014.45 1015.08 1014.93 1014.87 1014.69 1014.55 1014.23 1013.92 1013.57 1013.32 1012.82 1012.61 1012.40 1012.17 1012.10 1012.14 1012.25 1012.45 1012.68 1012.91 1013.13 1013.42 1013.73 1014.06 1014.45 1014.93
1012.34 1011.95 1011.46 1011.04 1011.15 1011.33 1011.41 1011.38 1011.46 1011.40 1011.52 1011.87 1012.19 1012.64 1012.95 1013.35 1013.75 1014.11 1014.11 1014.40 1014.43 1014.54 1014.58 1014.61 1014.25 1013.98 1013.68 1013.42 1013.24 1013.04 1012.87 1012.69 1012.63 1012.67 1012.77 1012.91 1013.07 1013.25 1013.50 1013.93 1014.07 1014.29 1014.53 1014.81
Wind_Speed
25 23 22 19 16 13 10 3 3 2 4 3 2 3 7 5 4 3 4 3 6 5 4 4 4 4 5 5 1 4 2 3 5 9 5 2 2 4 3 1 5 3 3 5
26 26 24 22 20 20 4 4 3 1 2 5 4 6 5 6 5 6 6 5 7 4 3 4 5 5 3 3 2 3 2 2 5 11 6 4 3 5 1 4 1 2 3 6
27 27 26 24 23 23 4 4 5 2 2 2 3 3 6 5 5 4 5 4 4 2 4 7 6 3 3 3 3 2 2 3 5 5 8 4 6 5 5 2 2 6 9 9
28 27 27 25 23 22 4 3 6 7 7 7 9 3 3 5 5 4 7 2 6 6 3 3 5 3 5 3 3 2 3 4 3 7 9 8 8 8 6 3 5 5 10 7
27 26 26 26 24 21 3 5 5 2 4 3 11 5 5 8 5 8 5 6 4 5 7 7 8 3 3 6 4 2 1 5 4 7 5 2 6 10 7 5 7 8 9 7
25 27 28 28 26 15 4 3 3 4 3 6 6 6 7 8 6 4 5 7 4 4 8 5 6 5 4 4 2 2 2 1 3 6 5 8 6 6 8 6 6 3 4 4
31 31 29 29 29 22 3 4 4 4 3 4 7 5 7 8 7 3 3 5 6 2 2 4 3 4 6 6 7 5 2 2 1 5 6 3 6 4 5 8 3 5 3 1
33 33 31 29 30 27 4 2 3 4 3 4 3 6 4 2 1 3 4 3 3 1 3 3 5 3 2 1 4 5 5 1 3 1 2 8 2 5 3 1 3 3 5 2
31 33 34 30 29 27 6 3 2 3 5 6 2 4 6 6 4 2 2 0 1 3 3 2 1 3 2 2 1 2 3 2 2 2 3 4 3 3 3 2 5 4 3 2
27 31 29 28 27 25 6 3 5 3 2 4 5 4 5 5 3 3 0 3 2 3 2 1 3 4 1 2 2 4 1 1 4 3 3 9 7 3 4 2 4 2 1 2
27 26 28 29 28 25 7 2 5 5 3 4 1 1 4 2 2 4 3 3 2 3 2 3 3 3 3 1 3 5 6 6 4 2 2 7 2 4 0 4 2 2 2 1
18 5 22 26 25 26 10 3 2 3 2 3 2 2 1 1 3 5 2 2 4 5 4 2 1 2 1 2 4 2 3 7 5 9 8 5 4 5 1 3 2 1 1 2
19 21 26 24 26 27 11 4 4 4 2 4 1 5 2 2 1 1 5 3 2 2 3 4 2 3 3 3 5 3 3 4 3 2 4 7 7 3 3 4 3 1 3 4
18 18 17 27 27 28 12 4 4 4 3 3 3 0 3 1 1 2 3 3 3 5 3 2 2 2 3 3 3 3 4 5 3 7 8 6 8 7 5 5 4 4 4 3
17 16 16 16 26 27 10 3 4 3 4 3 1 2 1 1 2 4 3 3 3 2 2 2 4 2 1 1 1 5 6 7 6 6 5 3 4 2 5 8 6 6 6 4
18 18 17 10 27 25 6 2 3 5 3 3 1 1 1 0 2 5 4 2 2 2 3 3 3 2 2 2 4 7 7 4 4 2 2 2 0 2 3 5 5 5 6 6
18 18 16 16 29 12 4 3 3 14 4 3 1 1 1 1 3 2 2 2 1 3 2 2 2 1 3 2 5 6 3 6 7 5 5 1 3 3 4 5 6 6 5 5
19 19 18 15 29 15 3 3 9 9 4 2 2 1 1 3 2 2 0 2 2 1 1 1 2 1 2 6 10 5 6 7 5 7 4 1 4 5 4 4 5 6 6 6
20 17 26 10 4 3 3 12 9 2 3 5 3 5 4 1 2 2 1 1 2 0 2 3 3 2 7 8 3 5 5 4 5 3 4 5 5 6 6 5 6 7 6 6
10 4 4 3 2 25 14 4 3 2 0 2 2 2 3 3 2 1 3 1 2 2 3 3 3 5 9 5 5 6 8 8 6 4 3 4 4 7 7 7 5 6 7 7
3 1 2 3 13 4 3 4 4 3 3 3 3 3 5 2 3 3 2 3 2 1 4 4 3 5 2 7 7 6 7 6 9 5 2 7 5 7 7 6 6 6 7 6
1 0 2 1 3 3 5 4 3 4 6 4 5 4 3 2 1 3 1 3 2 4 2 2 4 4 4 6 7 8 7 7 6 4 4 3 6 7 8 7 7 7 7 8
2 2 2 2 1 3 7 10 4 4 5 4 4 4 4 2 1 3 3 4 4 3 1 5 4 3 5 6 6 7 6 5 2 3 3 3 4 5 6 7 5 7 7 7
2 2 1 2 3 2 2 3 5 3 5 8 5 3 3 2 3 3 4 2 3 2 3 6 3 5 8 7 5 5 6 5 4 4 3 4 4 5 5 7 7 8 8 7
2 2 1 1 2 2 2 2 3 2 6 5 4 3 2 2 3 2 4 2 3 5 4 2 3 6 6 6 6 5 5 3 3 2 2 3 3 3 4 4 6 6 7 7
2 4 2 2 2 3 3 3 3 2 3 3 3 3 3 2 4 4 6 7 6 3 3 3 3 5 6 4 4 5 4 3 2 2 2 2 2 3 4 4 4 5 7 8
3 3 2 2 4 3 2 2 2 2 2 2 2 4 4 3 3 2 3 4 3 2 1 2 2 3 5 5 5 5 5 4 3 2 3 2 3 4 4 5 4 5 6 6
Wind_Direction
197 188 190 179 172 155 163 172 126 143 91 126 219 217 205 215 203 200 205 193 219 224 275 267 265 243 231 201 223 294 263 266 277 255 260 242 251 278 174 155 307 285 299 281
197 183 187 176 167 159 150 151 118 135 128 196 218 267 258 208 184 206 178 223 206 184 251 299 234 255 265 219 264 232 308 284 317 339 358 3 6 309 205 87 129 297 333 288
194 183 182 177 171 179 137 129 148 144 186 190 240 236 244 230 191 219 190 223 206 220 248 221 269 291 271 225 232 180 102 267 217 220 241 284 298 303 316 159 82 302 265 298
189 185 179 178 174 174 130 181 212 167 180 225 212 212 269 204 190 222 192 247 213 183 266 272 234 237 316 282 300 233 184 259 252 259 257 253 251 270 298 278 248 211 273 317
190 190 184 176 173 162 164 160 160 154 183 140 172 199 243 212 227 164 232 197 203 178 212 217 268 239 212 252 329 278 229 265 346 287 284 302 272 269 256 260 250 261 294 302
194 188 186 176 171 159 149 219 296 133 191 154 142 207 219 222 176 224 210 188 179 241 247 232 235 222 249 245 257 299 296 261 356 276 327 321 305 247 204 223 244 195 283 292
194 187 187 179 173 183 149 196 123 116 218 174 194 199 184 222 220 195 212 141 155 226 355 300 248 227 242 244 252 205 291 330 151 270 340 347 238 246 223 229 256 235 249 129
186 188 181 184 178 184 174 152 131 151 199 195 231 217 202 156 200 182 226 206 156 69 34 357 332 338 326 268 218 211 197 136 285 318 263 281 321 350 351 184 261 329 279 210
190 181 181 182 182 180 170 173 137 115 130 236 162 170 164 177 200 353 230 55 88 87 92 70 297 268 247 307 312 71 128 128 144 352 317 280 254 323 320 314 302 334 335 102
190 180 176 175 179 181 146 199 154 101 157 254 161 178 175 143 125 149 247 187 92 52 105 180 206 268 205 270 242 183 140 186 201 239 272 285 260 306 315 136 258 314 351 308
353 182 180 176 180 176 149 156 178 140 189 275 264 147 139 118 132 154 194 73 352 64 134 167 233 215 251 288 226 186 179 154 207 144 212 288 236 345 103 234 270 317 6 333
347 285 180 175 179 169 155 134 137 121 133 255 329 307 347 247 171 142 154 234 157 177 106 205 122 268 285 202 277 141 250 188 189 181 215 245 228 221 187 194 215 115 105 89
351 357 196 190 186 169 160 127 140 89 105 306 21 230 202 76 138 196 132 278 191 159 166 157 171 241 137 225 242 269 245 167 220 2 264 241 245 231 212 182 162 108 125 134
340 340 359 201 190 174 147 145 172 115 138 177 250 73 89 54 103 156 119 141 63 98 84 119 152 210 163 237 262 221 216 143 204 263 281 279 261 224 192 157 132 110 114 132
338 338 337 203 183 169 150 121 190 163 141 191 229 52 55 29 162 145 122 120 117 113 94 110 224 235 134 258 345 249 188 193 177 225 245 199 263 256 174 157 173 166 141 118
334 327 327 308 170 156 137 168 217 176 135 76 298 22 46 99 126 117 118 136 109 107 147 212 248 258 132 184 238 259 209 232 211 239 157 215 147 112 134 174 176 167 153 145
320 318 316 320 161 152 166 182 176 150 115 135 324 205 274 133 97 60 78 36 112 121 174 228 205 226 150 242 240 254 211 244 239 204 133 160 220 222 149 138 138 133 108 121
320 319 309 283 148 112 100 14 145 126 108 116 162 174 314 185 124 106 54 101 38 36 212 326 194 86 99 254 245 298 293 300 289 212 197 208 112 107 107 103 126 125 138 131
317 317 279 141 98 104 116 105 86 68 116 156 159 174 197 151 101 107 65 113 128 287 207 237 129 193 222 237 284 304 309 274 310 123 125 138 153 162 157 136 148 141 152 138
338 339 46 97 109 122 120 53 67 39 90 88 182 114 151 142 147 124 106 359 173 175 235 112 196 256 268 313 299 276 289 277 170 138 196 191 191 186 183 188 168 163 160 146
18 10 82 124 135 67 65 128 166 148 176 188 163 158 139 214 129 159 184 178 156 126 248 159 249 261 258 342 320 307 294 299 237 240 214 189 176 180 173 178 173 154 149 154
76 352 318 59 88 93 131 158 150 189 195 154 142 163 138 142 137 106 207 135 81 233 154 120 257 258 304 327 318 308 319 309 271 238 258 192 189 173 161 159 162 164 151 141
48 42 64 89 76 131 161 172 173 166 158 155 154 125 127 123 103 86 135 166 202 122 169 235 239 303 314 317 318 318 329 351 80 54 41 99 118 137 145 150 149 145 143 144
13 17 221 193 176 208 164 151 145 129 121 140 125 106 120 122 132 145 166 112 120 141 236 239 272 315 310 312 315 318 337 12 58 46 43 94 119 135 129 144 145 144 152 154
5 306 198 109 99 82 96 69 84 40 125 119 102 85 108 130 120 149 105 106 236 217 229 245 290 312 314 326 334 343 4 4 27 36 42 56 75 107 114 133 140 132 129 143
20 19 349 0 64 47 46 58 77 28 101 80 67 127 134 172 142 148 204 148 221 230 206 243 316 333 339 321 345 356 352 4 19 47 54 85 117 128 129 112 126 138 148 158
30 0 355 13 58 58 54 43 50 344 77 113 122 123 180 96 109 196 195 197 191 179 267 259 272 324 343 351 5 3 3 25 39 46 53 65 91 93 94 145 179 170 174 173